Location: Unspecified
(58.7730°N, 5.8460°E)
Time: 01:47:29
(UTC+02:00)

Cosmos 1674 - Visible Passes

Search period start: 26 August 2016 00:00
Search period end: 05 September 2016 00:00
Orbit: 499 x 526 km, 82.5° (Epoch: 25 August)

Date Brightness Start Highest point End Pass type
(mag) Time Alt. Az. Time Alt. Az. Time Alt. Az.
26 Aug 2.5 01:07:56 10° NNW 01:11:44 86° ENE 01:12:02 75° SSE visible
26 Aug 4.9 02:44:47 10° NW 02:46:50 14° W 02:46:58 14° W visible
26 Aug 5.1 23:17:30 10° NNE 23:19:25 13° NE 23:21:11 10° E visible
27 Aug 2.6 00:52:02 10° N 00:55:48 73° ENE 00:56:07 67° ESE visible
27 Aug 4.7 02:28:35 10° NW 02:31:01 16° W 02:31:03 16° W visible
27 Aug 5.1 23:01:56 10° NNE 23:03:22 12° NE 23:04:49 10° ENE visible
28 Aug 2.8 00:36:07 10° N 00:39:53 61° ENE 00:40:13 58° ESE visible
28 Aug 4.6 02:12:27 10° NW 02:15:09 19° W 02:15:09 19° W visible
28 Aug 5.2 22:46:37 10° NE 22:47:19 10° NE 22:48:01 10° ENE visible
29 Aug 3.0 00:20:13 10° N 00:23:55 51° ENE 00:24:18 49° E visible
29 Aug 4.4 01:56:22 10° NW 01:59:15 22° W 01:59:15 22° W visible
30 Aug 3.2 00:04:19 10° N 00:07:58 44° ENE 00:08:25 41° E visible
30 Aug 4.2 01:40:18 10° NNW 01:43:21 26° W 01:43:21 26° W visible
30 Aug 3.5 23:48:26 10° N 23:52:00 37° ENE 23:52:32 35° E visible
31 Aug 4.0 01:24:16 10° NNW 01:27:28 30° W 01:27:28 30° W visible
31 Aug 3.7 23:32:33 10° N 23:36:01 32° ENE 23:36:39 30° E visible
01 Sep 3.8 01:08:14 10° NNW 01:11:35 35° W 01:11:35 35° W visible
01 Sep 3.9 23:16:42 10° N 23:20:02 28° ENE 23:20:46 26° E visible
02 Sep 3.5 00:52:14 10° NNW 00:55:43 41° W 00:55:43 41° W visible
02 Sep 4.1 23:00:51 10° N 23:04:01 25° ENE 23:04:54 23° E visible
03 Sep 3.2 00:36:15 10° NNW 00:39:51 49° W 00:39:51 49° W visible
03 Sep 4.3 22:45:01 10° N 22:48:01 22° ENE 22:49:02 19° E visible
04 Sep 3.0 00:20:16 10° NNW 00:23:59 58° W 00:23:59 58° W visible
04 Sep 4.5 22:29:11 10° NNE 22:32:00 19° ENE 22:33:11 17° E visible
